Change the Weather History Date:

Saturday, July 20, 2013

  Actual Average Record
Temperature  
Mean Temperature 76 °F -  
Max Temperature 82 °F 78 °F 91 °F (2011)
Min Temperature 69 °F 59 °F 46 °F (2000)
Cooling Degree Days 10    
Growing Degree Days 26 (Base 50)    
Moisture  
Dew Point 64 °F    
Average Humidity 77    
Maximum Humidity 94    
Minimum Humidity 42    
Precipitation  
Precipitation 0.58 in - - ()
Sea Level Pressure  
Sea Level Pressure 29.77 in    
Wind  
Wind Speed 13 mph (West)    
Max Wind Speed 25 mph    
Max Gust Speed 32 mph    
Visibility 9 miles    
Events Rain , Thunderstorm    
Averages and records for this station are not official NWS values.
T = Trace of Precipitation, MM = Missing Value Source: NWS Daily Summary

Daily Weather History Graph

Daily Weather History Graph

Search for Another Location

Airport or City:

Trip Planner

Search our weather history database for the weather conditions in past years. The results will help you decide how hot, cold, wet, or windy it might be!

Date:

Astronomy

Jul. 20, 2013 Rise Set
Actual Time 5:54 AM EDT 8:49 PM EDT
Civil Twilight 5:20 AM EDT 9:22 PM EDT
Nautical Twilight 4:38 AM EDT 10:05 PM EDT
Astronomical Twilight 3:48 AM EDT 10:55 PM EDT
Moon 6:50 PM EDT (7/20) 3:32 AM EDT (7/20)
Length of Visible Light 16h 01m
Length of Day
14h 54m
Waxing Gibbous, 93% of the Moon is Illuminated
Jul 20
Waxing Gibbous
Jul 22
Full
Jul 29
Last Quarter
Aug 6
New
Aug 14
First Quarter

Hourly Weather History & Observations

Time (EDT) Temp. Heat Index Dew Point Humidity Pressure Visibility Wind Dir Wind Speed Gust Speed Precip Events Conditions
12:53 AM 71.1 °F - 69.1 °F 93% 29.75 in 3.0 mi SSW 25.3 mph 32.2 mph 0.10 in Rain , Thunderstorm Heavy Thunderstorms and Rain
12:56 AM 71.6 °F - 69.8 °F 94% 29.77 in 1.8 mi SSW 23.0 mph 32.2 mph 0.06 in Rain , Thunderstorm Heavy Thunderstorms and Rain
1:06 AM 71.6 °F - 66.2 °F 83% 29.76 in 3.0 mi South 12.7 mph 25.3 mph 0.12 in Rain , Thunderstorm Light Thunderstorms and Rain
1:20 AM 71.6 °F - 68.0 °F 88% 29.78 in 6.0 mi NNW 6.9 mph - 0.14 in Rain , Thunderstorm Thunderstorms and Rain
1:41 AM 71.6 °F - 69.8 °F 94% 29.77 in 5.0 mi SSW 10.4 mph - 0.21 in Rain Rain
1:47 AM 71.6 °F - 69.8 °F 94% 29.73 in 2.5 mi SSE 15.0 mph - 0.28 in Rain Heavy Rain
1:53 AM 72.0 °F - 69.1 °F 91% 29.70 in 3.0 mi South 13.8 mph - 0.28 in Rain Light Rain
2:44 AM 71.6 °F - 68.0 °F 88% 29.76 in 10.0 mi NW 8.1 mph 19.6 mph 0.03 in Rain Light Rain
2:53 AM 71.1 °F - 68.0 °F 90% 29.71 in 3.0 mi WNW 6.9 mph - 0.10 in Rain Heavy Rain
3:53 AM 71.1 °F - 66.9 °F 87% 29.73 in 7.0 mi SW 11.5 mph - 0.08 in Rain Light Rain
4:21 AM 71.6 °F - 66.2 °F 83% 29.74 in 10.0 mi SW 15.0 mph 21.9 mph 0.01 in   Mostly Cloudy
4:51 AM 69.8 °F - 66.2 °F 88% 29.74 in 10.0 mi SW 9.2 mph - 0.01 in Rain Light Rain
4:53 AM 70.0 °F - 66.9 °F 90% 29.72 in 10.0 mi SSW 9.2 mph - 0.01 in   Scattered Clouds
5:22 AM 69.8 °F - 66.2 °F 88% 29.74 in 10.0 mi WSW 8.1 mph - N/A   Mostly Cloudy
5:37 AM 69.8 °F - 66.2 °F 88% 29.75 in 10.0 mi WSW 9.2 mph - N/A   Mostly Cloudy
5:51 AM 69.8 °F - 68.0 °F 94% 29.74 in 10.0 mi WSW 10.4 mph - N/A   Scattered Clouds
5:53 AM 70.0 °F - 68.0 °F 93% 29.72 in 10.0 mi SW 9.2 mph - N/A   Partly Cloudy
6:46 AM 71.6 °F - 66.2 °F 83% 29.74 in 10.0 mi WSW 13.8 mph 24.2 mph N/A   Mostly Cloudy
6:53 AM 71.1 °F - 68.0 °F 90% 29.73 in 10.0 mi WSW 17.3 mph 24.2 mph N/A   Overcast
7:00 AM 71.6 °F - 68.0 °F 88% 29.74 in 10.0 mi WSW 17.3 mph 26.5 mph N/A   Overcast
7:53 AM 71.1 °F - 66.0 °F 84% 29.76 in 10.0 mi WSW 17.3 mph 23.0 mph N/A   Overcast
8:11 AM 71.6 °F - 66.2 °F 83% 29.77 in 10.0 mi West 13.8 mph - N/A   Overcast
8:35 AM 71.6 °F - 66.2 °F 83% 29.77 in 10.0 mi WSW 11.5 mph - 0.00 in Rain Light Rain
8:48 AM 71.6 °F - 66.2 °F 83% 29.77 in 10.0 mi WSW 13.8 mph - 0.00 in Rain Light Rain
8:53 AM 71.1 °F - 66.0 °F 84% 29.76 in 10.0 mi WSW 11.5 mph - 0.00 in Rain Light Rain
9:09 AM 71.6 °F - 66.2 °F 83% 29.78 in 10.0 mi WSW 12.7 mph 21.9 mph 0.00 in   Overcast
9:17 AM 71.6 °F - 66.2 °F 83% 29.78 in 10.0 mi WSW 15.0 mph 20.7 mph 0.00 in   Overcast
9:53 AM 71.1 °F - 68.0 °F 90% 29.76 in 10.0 mi West 12.7 mph - 0.00 in   Overcast
10:20 AM 71.6 °F - 68.0 °F 88% 29.78 in 10.0 mi West 16.1 mph - 0.00 in Rain Light Rain
10:53 AM 69.1 °F - 61.0 °F 75% 29.78 in 7.0 mi NW 12.7 mph - 0.00 in Rain Light Rain
10:58 AM 69.8 °F - 62.6 °F 78% 29.79 in 10.0 mi NW 11.5 mph - 0.00 in Rain Light Rain
11:07 AM 69.8 °F - 60.8 °F 73% 29.79 in 10.0 mi NW 9.2 mph - 0.00 in   Overcast
11:13 AM 69.8 °F - 60.8 °F 73% 29.79 in 10.0 mi NW 8.1 mph - 0.00 in Rain Light Rain
11:31 AM 71.6 °F - 62.6 °F 73% 29.79 in 10.0 mi NW 6.9 mph - 0.01 in   Mostly Cloudy
11:40 AM 71.6 °F - 62.6 °F 73% 29.79 in 9.0 mi NNW 6.9 mph - 0.01 in   Mostly Cloudy
11:53 AM 73.0 °F - 60.1 °F 64% 29.79 in 10.0 mi NW 5.8 mph - 0.01 in   Mostly Cloudy
12:53 PM 75.9 °F - 59.0 °F 56% 29.79 in 10.0 mi NW 10.4 mph - N/A   Mostly Cloudy
1:53 PM 79.0 °F - 57.9 °F 48% 29.78 in 10.0 mi WNW 8.1 mph - N/A   Scattered Clouds
2:53 PM 79.0 °F - 57.0 °F 47% 29.79 in 10.0 mi WNW 3.5 mph - N/A   Scattered Clouds
3:53 PM 81.0 °F 81.3 °F 59.0 °F 47% 29.79 in 10.0 mi WNW 8.1 mph - N/A   Scattered Clouds
4:53 PM 82.0 °F 81.7 °F 57.0 °F 42% 29.78 in 10.0 mi WNW 10.4 mph - N/A   Scattered Clouds
5:53 PM 81.0 °F 80.8 °F 55.9 °F 42% 29.79 in 10.0 mi WNW 9.2 mph - N/A   Scattered Clouds
6:53 PM 80.1 °F 80.4 °F 57.0 °F 45% 29.79 in 10.0 mi WNW 5.8 mph - N/A   Scattered Clouds
7:53 PM 78.1 °F - 57.9 °F 50% 29.81 in 10.0 mi NW 8.1 mph - N/A   Scattered Clouds
8:53 PM 73.9 °F - 59.0 °F 59% 29.83 in 10.0 mi NNW 5.8 mph - N/A   Scattered Clouds
9:53 PM 71.1 °F - 61.0 °F 70% 29.86 in 10.0 mi North 5.8 mph - N/A   Scattered Clouds
10:53 PM 70.0 °F - 61.0 °F 73% 29.88 in 10.0 mi Calm Calm - N/A   Scattered Clouds
11:53 PM 69.1 °F - 60.1 °F 73% 29.89 in 10.0 mi North 3.5 mph - N/A   Scattered Clouds